{"data":{"norad_id":51783,"epoch":"2026-09-19T22:44:58.960032Z","epoch_age_seconds":99305,"freshness":"FRESH","line1":"1 51783U 22017R   26262.94790463 -.00000361  00000+0  12700-6 0  9992","line2":"2 51783  53.1602 171.8928 0001340  80.7253 279.3900 15.31700269251958","mean_motion":15.31700269,"eccentricity":0.000134,"inclination_deg":53.1602,"raan_deg":171.8928,"arg_perigee_deg":80.7253,"mean_anomaly_deg":279.39,"bstar":1.27e-7,"rev_number":25195,"period_min":94.013171450321,"perigee_km":469.82144394085,"apogee_km":471.65694276067,"semimajor_km":6848.8761933508,"source":"CELESTRAK","updated_at":"2026-09-20T09:00:39.938998Z"}}